| time (UTC) | temp F | wind direction | speed MPH | gust MPH | rain 1hr in | rain 24hr in | rain mn in | humidity % | barometer mb |
| 20260903042831 | 80 | 0.0 | 0.0 | 0.00 | 0.00 | 0.00 | 84 | 1013.1 | |
| 20260903042311 | 80 | 0.0 | 0.0 | 0.00 | 0.00 | 0.00 | 84 | 1013.2 | |
| 20260903041811 | 80 | 0.0 | 1.0 | 0.00 | 0.00 | 0.00 | 84 | 1013.2 | |
| 20260903041331 | 80 | 0.0 | 0.0 | 0.00 | 0.00 | 0.00 | 84 | 1013.1 | |
| 20260903040811 | 80 | 225 | 1.0 | 3.0 | 0.00 | 0.00 | 0.00 | 84 | 1013.0 |
| 20260903040310 | 80 | 153 | 0.0 | 2.0 | 0.00 | 0.00 | 0.00 | 84 | 1012.9 |
| 20260903035811 | 80 | 211 | 0.0 | 2.0 | 0.00 | 0.00 | 0.00 | 84 | 1012.9 |
| 20260903035311 | 80 | 0.0 | 0.0 | 0.00 | 0.00 | 0.00 | 83 | 1012.9 | |
| 20260903034811 | 81 | 0.0 | 0.0 | 0.00 | 0.00 | 0.00 | 83 | 1012.8 | |
| 20260903034311 | 81 | 0.0 | 0.0 | 0.00 | 0.00 | 0.00 | 83 | 1012.8 | |
| 20260903033831 | 81 | 230 | 0.0 | 3.0 | 0.00 | 0.00 | 0.00 | 83 | 1012.6 |
| 20260903033331 | 81 | 204 | 2.0 | 5.0 | 0.00 | 0.00 | 0.00 | 83 | 1012.6 |
| 20260903032831 | 81 | 198 | 3.0 | 5.0 | 0.00 | 0.00 | 0.00 | 83 | 1012.6 |
| 20260903032311 | 81 | 186 | 2.0 | 5.0 | 0.00 | 0.00 | 0.00 | 83 | 1012.7 |
| 20260903031811 | 81 | 181 | 2.0 | 5.0 | 0.00 | 0.00 | 0.00 | 83 | 1012.5 |
| 20260903031311 | 81 | 156 | 2.0 | 6.0 | 0.00 | 0.00 | 0.00 | 82 | 1012.5 |
| 20260903030831 | 81 | 197 | 4.0 | 6.0 | 0.00 | 0.00 | 0.00 | 82 | 1012.4 |
| 20260903030310 | 81 | 191 | 4.0 | 6.0 | 0.00 | 0.00 | 0.00 | 82 | 1012.4 |
| 20260903025811 | 81 | 195 | 3.0 | 8.0 | 0.00 | 0.00 | 0.00 | 82 | 1012.4 |
| 20260903025311 | 82 | 194 | 3.0 | 5.0 | 0.00 | 0.00 | 0.00 | 82 | 1012.5 |
| 20260903024831 | 82 | 194 | 3.0 | 6.0 | 0.00 | 0.00 | 0.00 | 82 | 1012.7 |
| 20260903024311 | 82 | 205 | 1.0 | 6.0 | 0.00 | 0.00 | 0.00 | 82 | 1012.7 |
| 20260903023811 | 82 | 196 | 2.0 | 5.0 | 0.00 | 0.00 | 0.00 | 82 | 1012.8 |
| 20260903023311 | 82 | 196 | 2.0 | 5.0 | 0.00 | 0.00 | 0.00 | 81 | 1012.9 |
| 20260903022811 | 82 | 172 | 2.0 | 6.0 | 0.00 | 0.00 | 0.00 | 81 | 1013.0 |
| 20260903022310 | 82 | 199 | 3.0 | 6.0 | 0.00 | 0.00 | 0.00 | 81 | 1013.1 |
| 20260903021811 | 82 | 213 | 0.0 | 6.0 | 0.00 | 0.00 | 0.00 | 81 | 1013.1 |
| 20260903021311 | 83 | 205 | 5.0 | 8.0 | 0.00 | 0.00 | 0.00 | 80 | 1013.0 |
| 20260903020830 | 83 | 168 | 2.0 | 9.0 | 0.00 | 0.00 | 0.00 | 80 | 1013.0 |
| 20260903020311 | 83 | 185 | 4.0 | 7.0 | 0.00 | 0.00 | 0.00 | 80 | 1013.1 |
| 20260903015811 | 83 | 204 | 3.0 | 5.0 | 0.00 | 0.00 | 0.00 | 80 | 1013.0 |
| 20260903015311 | 83 | 188 | 3.0 | 6.0 | 0.00 | 0.00 | 0.00 | 79 | 1013.0 |
| 20260903014810 | 83 | 183 | 2.0 | 6.0 | 0.00 | 0.00 | 0.00 | 79 | 1012.9 |
| 20260903014311 | 83 | 192 | 2.0 | 6.0 | 0.00 | 0.00 | 0.00 | 79 | 1012.9 |
| 20260903013810 | 84 | 202 | 2.0 | 5.0 | 0.00 | 0.00 | 0.00 | 78 | 1012.9 |
| 20260903013310 | 84 | 193 | 2.0 | 4.0 | 0.00 | 0.00 | 0.00 | 78 | 1012.8 |
| 20260903012811 | 84 | 195 | 3.0 | 7.0 | 0.00 | 0.00 | 0.00 | 78 | 1012.8 |
| 20260903012310 | 84 | 193 | 3.0 | 5.0 | 0.00 | 0.00 | 0.00 | 77 | 1012.8 |
| 20260903011811 | 84 | 196 | 3.0 | 4.0 | 0.00 | 0.00 | 0.00 | 77 | 1012.7 |
| 20260903011310 | 85 | 188 | 1.0 | 6.0 | 0.00 | 0.00 | 0.00 | 76 | 1012.7 |
| 20260903010810 | 85 | 188 | 4.0 | 5.0 | 0.00 | 0.00 | 0.00 | 76 | 1012.6 |
| 20260903010311 | 85 | 168 | 2.0 | 4.0 | 0.00 | 0.00 | 0.00 | 76 | 1012.6 |
| 20260903005810 | 85 | 188 | 2.0 | 4.0 | 0.00 | 0.00 | 0.00 | 75 | 1012.5 |
| 20260903005310 | 85 | 191 | 4.0 | 6.0 | 0.00 | 0.00 | 0.00 | 75 | 1012.5 |
| 20260903004810 | 85 | 204 | 4.0 | 7.0 | 0.00 | 0.00 | 0.00 | 75 | 1012.5 |
| 20260903004330 | 86 | 189 | 2.0 | 5.0 | 0.00 | 0.00 | 0.00 | 74 | 1012.5 |
| 20260903003811 | 86 | 189 | 3.0 | 5.0 | 0.00 | 0.00 | 0.00 | 74 | 1012.5 |
| 20260903003330 | 86 | 197 | 3.0 | 5.0 | 0.00 | 0.00 | 0.00 | 73 | 1012.5 |
| 20260903002831 | 86 | 199 | 1.0 | 6.0 | 0.00 | 0.00 | 0.00 | 73 | 1012.5 |
| 20260903002310 | 86 | 184 | 3.0 | 4.0 | 0.00 | 0.00 | 0.00 | 73 | 1012.5 |
| 20260903001810 | 87 | 158 | 2.0 | 4.0 | 0.00 | 0.00 | 0.00 | 72 | 1012.5 |
| 20260903001330 | 87 | 176 | 2.0 | 4.0 | 0.00 | 0.00 | 0.00 | 72 | 1012.5 |
| 20260903000831 | 87 | 193 | 2.0 | 7.0 | 0.00 | 0.00 | 0.00 | 71 | 1012.6 |
| 20260903000310 | 87 | 187 | 2.0 | 4.0 | 0.00 | 0.00 | 0.00 | 71 | 1012.6 |
| 20260902235810 | 87 | 198 | 4.0 | 7.0 | 0.00 | 0.00 | 0.00 | 71 | 1012.7 |
| 20260902235311 | 88 | 201 | 4.0 | 10.0 | 0.00 | 0.00 | 0.00 | 70 | 1012.7 |
| 20260902234810 | 88 | 202 | 4.0 | 8.0 | 0.00 | 0.00 | 0.00 | 70 | 1012.7 |
| 20260902234310 | 88 | 182 | 3.0 | 6.0 | 0.00 | 0.00 | 0.00 | 70 | 1012.7 |
| 20260902233810 | 88 | 180 | 2.0 | 7.0 | 0.00 | 0.00 | 0.00 | 69 | 1012.7 |
| 20260902233310 | 88 | 169 | 2.0 | 9.0 | 0.00 | 0.00 | 0.00 | 69 | 1012.7 |
| 20260902232810 | 89 | 212 | 4.0 | 10.0 | 0.00 | 0.00 | 0.00 | 69 | 1012.7 |
| 20260902232310 | 89 | 226 | 2.0 | 4.0 | 0.00 | 0.00 | 0.00 | 68 | 1012.7 |
| 20260902231810 | 89 | 194 | 4.0 | 11.0 | 0.00 | 0.00 | 0.00 | 68 | 1012.7 |
| 20260902231330 | 89 | 201 | 3.0 | 6.0 | 0.00 | 0.00 | 0.00 | 67 | 1012.7 |
| 20260902230810 | 89 | 208 | 4.0 | 9.0 | 0.00 | 0.00 | 0.00 | 67 | 1012.6 |
| 20260902230310 | 90 | 181 | 2.0 | 8.0 | 0.00 | 0.00 | 0.00 | 66 | 1012.7 |
| 20260902225810 | 90 | 195 | 7.0 | 9.0 | 0.00 | 0.00 | 0.00 | 66 | 1012.6 |
| 20260902225310 | 90 | 197 | 6.0 | 8.0 | 0.00 | 0.00 | 0.00 | 65 | 1012.6 |
| 20260902224810 | 90 | 193 | 8.0 | 11.0 | 0.00 | 0.00 | 0.00 | 65 | 1012.7 |
| 20260902224310 | 90 | 179 | 4.0 | 9.0 | 0.00 | 0.00 | 0.00 | 65 | 1012.8 |
| 20260902223812 | 90 | 204 | 8.0 | 11.0 | 0.00 | 0.00 | 0.00 | 64 | 1012.7 |
| 20260902223312 | 90 | 184 | 6.0 | 10.0 | 0.00 | 0.00 | 0.00 | 64 | 1012.7 |
| 20260902222813 | 91 | 217 | 2.0 | 7.0 | 0.00 | 0.00 | 0.00 | 64 | 1012.8 |
| 20260902222312 | 91 | 192 | 3.0 | 9.0 | 0.00 | 0.00 | 0.00 | 64 | 1012.8 |
| 20260902221812 | 91 | 208 | 1.0 | 4.0 | 0.00 | 0.00 | 0.00 | 64 | 1012.8 |
| 20260902221313 | 91 | 196 | 3.0 | 6.0 | 0.00 | 0.00 | 0.00 | 64 | 1012.8 |
| 20260902220812 | 91 | 239 | 5.0 | 8.0 | 0.00 | 0.00 | 0.00 | 63 | 1012.9 |
| 20260902220312 | 91 | 194 | 5.0 | 7.0 | 0.00 | 0.00 | 0.00 | 63 | 1012.9 |
| 20260902215832 | 91 | 197 | 4.0 | 7.0 | 0.00 | 0.00 | 0.00 | 62 | 1013.0 |
| 20260902215312 | 91 | 195 | 8.0 | 13.0 | 0.00 | 0.00 | 0.00 | 61 | 1013.0 |
| 20260902214812 | 91 | 207 | 6.0 | 14.0 | 0.00 | 0.00 | 0.00 | 60 | 1013.0 |
| 20260902214312 | 91 | 207 | 7.0 | 11.0 | 0.00 | 0.00 | 0.00 | 60 | 1013.0 |
| 20260902213832 | 91 | 192 | 6.0 | 11.0 | 0.00 | 0.00 | 0.00 | 59 | 1013.1 |
| 20260902213312 | 92 | 224 | 6.0 | 10.0 | 0.00 | 0.00 | 0.00 | 58 | 1013.1 |
| 20260902212812 | 92 | 225 | 6.0 | 13.0 | 0.00 | 0.00 | 0.00 | 58 | 1013.2 |
| 20260902212312 | 92 | 213 | 7.0 | 14.0 | 0.00 | 0.00 | 0.00 | 59 | 1013.1 |
| 20260902211812 | 92 | 190 | 7.0 | 12.0 | 0.00 | 0.00 | 0.00 | 58 | 1013.2 |
| 20260902211312 | 92 | 236 | 7.0 | 13.0 | 0.00 | 0.00 | 0.00 | 57 | 1013.2 |
| 20260902210812 | 92 | 223 | 6.0 | 13.0 | 0.00 | 0.00 | 0.00 | 57 | 1013.2 |
| 20260902210332 | 92 | 193 | 4.0 | 7.0 | 0.00 | 0.00 | 0.00 | 58 | 1013.2 |
| 20260902205812 | 92 | 208 | 7.0 | 11.0 | 0.00 | 0.00 | 0.00 | 57 | 1013.3 |
| 20260902205312 | 92 | 221 | 6.0 | 12.0 | 0.00 | 0.00 | 0.00 | 58 | 1013.3 |
| 20260902204812 | 93 | 197 | 6.0 | 11.0 | 0.00 | 0.00 | 0.00 | 59 | 1013.4 |
| 20260902204332 | 93 | 192 | 8.0 | 13.0 | 0.00 | 0.00 | 0.00 | 59 | 1013.5 |
| 20260902203812 | 93 | 212 | 7.0 | 13.0 | 0.00 | 0.00 | 0.00 | 59 | 1013.6 |
| 20260902203312 | 93 | 190 | 5.0 | 12.0 | 0.00 | 0.00 | 0.00 | 58 | 1013.6 |
| 20260902202832 | 92 | 213 | 5.0 | 11.0 | 0.00 | 0.00 | 0.00 | 60 | 1013.6 |
| 20260902202332 | 92 | 199 | 8.0 | 15.0 | 0.00 | 0.00 | 0.00 | 59 | 1013.6 |
| 20260902201852 | 93 | 207 | 6.0 | 13.0 | 0.00 | 0.00 | 0.00 | 58 | 1013.7 |
| 20260902201312 | 93 | 216 | 7.0 | 16.0 | 0.00 | 0.00 | 0.00 | 58 | 1013.8 |
| 20260902200812 | 94 | 218 | 6.0 | 11.0 | 0.00 | 0.00 | 0.00 | 57 | 1013.8 |
| 20260902200312 | 94 | 213 | 6.0 | 13.0 | 0.00 | 0.00 | 0.00 | 58 | 1013.8 |
| 20260902195812 | 94 | 206 | 7.0 | 11.0 | 0.00 | 0.00 | 0.00 | 57 | 1013.9 |
| 20260902195312 | 94 | 203 | 5.0 | 11.0 | 0.00 | 0.00 | 0.00 | 56 | 1014.0 |
| 20260902194832 | 94 | 232 | 3.0 | 9.0 | 0.00 | 0.00 | 0.00 | 57 | 1014.0 |
| 20260902194312 | 94 | 207 | 4.0 | 12.0 | 0.00 | 0.00 | 0.00 | 57 | 1014.1 |
| 20260902193812 | 95 | 218 | 4.0 | 7.0 | 0.00 | 0.00 | 0.00 | 56 | 1014.2 |
| 20260902193312 | 95 | 208 | 5.0 | 10.0 | 0.00 | 0.00 | 0.00 | 55 | 1014.2 |
| 20260902192811 | 95 | 209 | 7.0 | 14.0 | 0.00 | 0.00 | 0.00 | 53 | 1014.2 |
| 20260902192312 | 95 | 189 | 5.0 | 12.0 | 0.00 | 0.00 | 0.00 | 54 | 1014.3 |
| 20260902191811 | 95 | 214 | 5.0 | 8.0 | 0.00 | 0.00 | 0.00 | 55 | 1014.3 |
| 20260902191312 | 95 | 223 | 5.0 | 9.0 | 0.00 | 0.00 | 0.00 | 54 | 1014.4 |
| 20260902190811 | 94 | 195 | 6.0 | 12.0 | 0.00 | 0.00 | 0.00 | 54 | 1014.4 |
| 20260902190311 | 94 | 212 | 3.0 | 8.0 | 0.00 | 0.00 | 0.00 | 57 | 1014.6 |
| 20260902185831 | 94 | 232 | 4.0 | 8.0 | 0.00 | 0.00 | 0.00 | 55 | 1014.6 |
| 20260902185311 | 94 | 237 | 8.0 | 13.0 | 0.00 | 0.00 | 0.00 | 56 | 1014.6 |
| 20260902184811 | 94 | 224 | 6.0 | 12.0 | 0.00 | 0.00 | 0.00 | 54 | 1014.6 |
| 20260902184312 | 94 | 235 | 7.0 | 13.0 | 0.00 | 0.00 | 0.00 | 56 | 1014.7 |
| 20260902183812 | 94 | 245 | 6.0 | 9.0 | 0.00 | 0.00 | 0.00 | 56 | 1014.6 |
| 20260902183311 | 94 | 214 | 7.0 | 12.0 | 0.00 | 0.00 | 0.00 | 58 | 1014.7 |
| 20260902182811 | 94 | 231 | 3.0 | 9.0 | 0.00 | 0.00 | 0.00 | 60 | 1014.8 |
| 20260902182311 | 93 | 196 | 4.0 | 12.0 | 0.00 | 0.00 | 0.00 | 61 | 1014.8 |
| 20260902181812 | 93 | 237 | 6.0 | 13.0 | 0.00 | 0.00 | 0.00 | 61 | 1014.9 |
| 20260902181311 | 93 | 207 | 4.0 | 12.0 | 0.00 | 0.00 | 0.00 | 61 | 1014.9 |
| 20260902180811 | 92 | 189 | 3.0 | 8.0 | 0.00 | 0.00 | 0.00 | 63 | 1014.9 |
| 20260902180311 | 92 | 229 | 4.0 | 9.0 | 0.00 | 0.00 | 0.00 | 62 | 1015.0 |
| 20260902175811 | 92 | 212 | 6.0 | 10.0 | 0.00 | 0.00 | 0.00 | 64 | 1015.0 |
| 20260902175311 | 92 | 222 | 5.0 | 10.0 | 0.00 | 0.00 | 0.00 | 61 | 1015.0 |
| 20260902174811 | 92 | 213 | 7.0 | 11.0 | 0.00 | 0.00 | 0.00 | 62 | 1015.1 |
| 20260902174311 | 92 | 234 | 4.0 | 7.0 | 0.00 | 0.00 | 0.00 | 63 | 1015.1 |
| 20260902173811 | 92 | 205 | 3.0 | 7.0 | 0.00 | 0.00 | 0.00 | 63 | 1015.2 |
| 20260902173312 | 91 | 201 | 6.0 | 13.0 | 0.00 | 0.00 | 0.00 | 65 | 1015.3 |
| 20260902172811 | 91 | 218 | 3.0 | 10.0 | 0.00 | 0.00 | 0.00 | 65 | 1015.3 |
| 20260902172311 | 91 | 250 | 1.0 | 2.0 | 0.00 | 0.00 | 0.00 | 65 | 1015.4 |
| 20260902171831 | 91 | 228 | 4.0 | 6.0 | 0.00 | 0.00 | 0.00 | 65 | 1015.4 |
| 20260902171311 | 91 | 196 | 6.0 | 8.0 | 0.00 | 0.00 | 0.00 | 64 | 1015.4 |
| 20260902170811 | 91 | 220 | 5.0 | 10.0 | 0.00 | 0.00 | 0.00 | 63 | 1015.4 |
| 20260902170331 | 92 | 195 | 4.0 | 6.0 | 0.00 | 0.00 | 0.00 | 66 | 1015.4 |
| 20260902165811 | 91 | 243 | 1.0 | 3.0 | 0.00 | 0.00 | 0.00 | 67 | 1015.5 |
| 20260902165311 | 91 | 208 | 1.0 | 4.0 | 0.00 | 0.00 | 0.00 | 64 | 1015.5 |
| 20260902164811 | 91 | 205 | 4.0 | 9.0 | 0.00 | 0.00 | 0.00 | 65 | 1015.7 |
| 20260902164311 | 91 | 230 | 4.0 | 11.0 | 0.00 | 0.00 | 0.00 | 65 | 1015.7 |
| 20260902163811 | 91 | 209 | 2.0 | 6.0 | 0.00 | 0.00 | 0.00 | 64 | 1015.6 |
| 20260902163311 | 91 | 198 | 4.0 | 10.0 | 0.00 | 0.00 | 0.00 | 65 | 1015.8 |
| 20260902162831 | 90 | 191 | 5.0 | 10.0 | 0.00 | 0.00 | 0.00 | 65 | 1015.7 |
| 20260902162311 | 90 | 200 | 6.0 | 10.0 | 0.00 | 0.00 | 0.00 | 65 | 1015.6 |
| 20260902161811 | 90 | 264 | 5.0 | 8.0 | 0.00 | 0.00 | 0.00 | 66 | 1015.7 |
| 20260902161311 | 90 | 211 | 4.0 | 6.0 | 0.00 | 0.00 | 0.00 | 69 | 1015.9 |
| 20260902160811 | 90 | 229 | 7.0 | 10.0 | 0.00 | 0.00 | 0.00 | 67 | 1015.9 |
| 20260902160311 | 89 | 225 | 4.0 | 8.0 | 0.00 | 0.00 | 0.00 | 69 | 1015.9 |
| 20260902155831 | 89 | 210 | 3.0 | 8.0 | 0.00 | 0.00 | 0.00 | 69 | 1015.9 |
| 20260902155311 | 89 | 187 | 2.0 | 7.0 | 0.00 | 0.00 | 0.00 | 69 | 1015.8 |
| 20260902154811 | 89 | 186 | 3.0 | 6.0 | 0.00 | 0.00 | 0.00 | 70 | 1015.9 |
| 20260902154311 | 89 | 201 | 6.0 | 11.0 | 0.00 | 0.00 | 0.00 | 70 | 1015.8 |
| 20260902153811 | 88 | 194 | 5.0 | 8.0 | 0.00 | 0.00 | 0.00 | 72 | 1015.8 |
| 20260902153311 | 88 | 197 | 4.0 | 8.0 | 0.00 | 0.00 | 0.00 | 71 | 1015.8 |
| 20260902152831 | 88 | 205 | 4.0 | 8.0 | 0.00 | 0.00 | 0.00 | 72 | 1015.8 |
| 20260902152311 | 88 | 251 | 3.0 | 8.0 | 0.00 | 0.00 | 0.00 | 72 | 1015.8 |
| 20260902151811 | 87 | 222 | 4.0 | 10.0 | 0.00 | 0.00 | 0.00 | 73 | 1015.7 |
| 20260902151311 | 87 | 205 | 4.0 | 8.0 | 0.00 | 0.00 | 0.00 | 74 | 1015.6 |
| 20260902150811 | 87 | 206 | 2.0 | 4.0 | 0.00 | 0.00 | 0.00 | 73 | 1015.6 |
| 20260902150311 | 87 | 211 | 4.0 | 6.0 | 0.00 | 0.00 | 0.00 | 73 | 1015.6 |
| 20260902145811 | 87 | 195 | 1.0 | 6.0 | 0.00 | 0.00 | 0.00 | 72 | 1015.6 |
| 20260902145311 | 87 | 232 | 4.0 | 8.0 | 0.00 | 0.00 | 0.00 | 73 | 1015.5 |
| 20260902144811 | 86 | 250 | 1.0 | 3.0 | 0.00 | 0.00 | 0.00 | 74 | 1015.5 |
| 20260902144311 | 86 | 208 | 6.0 | 9.0 | 0.00 | 0.00 | 0.00 | 74 | 1015.4 |
| 20260902143811 | 86 | 203 | 4.0 | 6.0 | 0.00 | 0.00 | 0.00 | 75 | 1015.5 |
| 20260902143311 | 85 | 215 | 7.0 | 13.0 | 0.00 | 0.00 | 0.00 | 76 | 1015.4 |
| 20260902142811 | 85 | 211 | 5.0 | 6.0 | 0.00 | 0.00 | 0.00 | 77 | 1015.3 |
| 20260902142331 | 84 | 227 | 4.0 | 6.0 | 0.00 | 0.00 | 0.00 | 79 | 1015.2 |
| 20260902141811 | 83 | 231 | 5.0 | 8.0 | 0.00 | 0.00 | 0.00 | 81 | 1015.3 |
| 20260902141311 | 83 | 205 | 4.0 | 5.0 | 0.00 | 0.00 | 0.00 | 81 | 1015.3 |
| 20260902140811 | 82 | 206 | 4.0 | 6.0 | 0.00 | 0.00 | 0.00 | 83 | 1015.2 |
| 20260902140311 | 82 | 220 | 3.0 | 7.0 | 0.00 | 0.00 | 0.00 | 83 | 1015.2 |
| 20260902135811 | 81 | 202 | 3.0 | 4.0 | 0.00 | 0.00 | 0.00 | 85 | 1015.2 |
| 20260902135311 | 81 | 193 | 4.0 | 7.0 | 0.00 | 0.00 | 0.00 | 85 | 1015.2 |
| 20260902134811 | 80 | 208 | 5.0 | 7.0 | 0.00 | 0.00 | 0.00 | 85 | 1015.2 |
| 20260902134311 | 80 | 202 | 2.0 | 5.0 | 0.00 | 0.00 | 0.00 | 87 | 1015.2 |
| 20260902133811 | 79 | 204 | 1.0 | 4.0 | 0.00 | 0.00 | 0.00 | 88 | 1015.1 |
| 20260902133311 | 79 | 195 | 1.0 | 4.0 | 0.00 | 0.00 | 0.00 | 89 | 1015.2 |
| 20260902132811 | 78 | 222 | 3.0 | 5.0 | 0.00 | 0.00 | 0.00 | 89 | 1015.0 |
| 20260902132311 | 78 | 198 | 3.0 | 6.0 | 0.00 | 0.00 | 0.00 | 90 | 1015.1 |
| 20260902131811 | 78 | 209 | 3.0 | 5.0 | 0.00 | 0.00 | 0.00 | 90 | 1015.1 |
| 20260902131311 | 77 | 207 | 3.0 | 5.0 | 0.00 | 0.00 | 0.00 | 91 | 1015.1 |
| 20260902130811 | 77 | 212 | 5.0 | 7.0 | 0.00 | 0.00 | 0.00 | 91 | 1015.2 |
| 20260902130311 | 77 | 213 | 5.0 | 6.0 | 0.00 | 0.00 | 0.00 | 92 | 1015.2 |
| 20260902125811 | 76 | 213 | 4.0 | 7.0 | 0.00 | 0.00 | 0.00 | 92 | 1015.1 |
| 20260902125310 | 76 | 214 | 3.0 | 5.0 | 0.00 | 0.00 | 0.00 | 92 | 1015.1 |
| 20260902124811 | 76 | 197 | 3.0 | 5.0 | 0.00 | 0.00 | 0.00 | 92 | 1015.1 |
| 20260902124331 | 75 | 210 | 3.0 | 5.0 | 0.00 | 0.00 | 0.00 | 92 | 1015.1 |
| 20260902123811 | 75 | 215 | 2.0 | 5.0 | 0.00 | 0.00 | 0.00 | 92 | 1015.1 |
| 20260902123331 | 75 | 203 | 1.0 | 3.0 | 0.00 | 0.00 | 0.00 | 92 | 1015.1 |
| 20260902122811 | 74 | 208 | 2.0 | 3.0 | 0.00 | 0.00 | 0.00 | 92 | 1015.1 |
| 20260902122311 | 74 | 208 | 1.0 | 4.0 | 0.00 | 0.00 | 0.00 | 92 | 1015.0 |
| 20260902121810 | 74 | 208 | 1.0 | 4.0 | 0.00 | 0.00 | 0.00 | 92 | 1015.1 |
| 20260902121311 | 74 | 217 | 1.0 | 3.0 | 0.00 | 0.00 | 0.00 | 92 | 1015.1 |
| 20260902120811 | 74 | 207 | 1.0 | 4.0 | 0.00 | 0.00 | 0.00 | 92 | 1015.1 |
| 20260902120331 | 74 | 207 | 2.0 | 3.0 | 0.00 | 0.00 | 0.00 | 92 | 1015.2 |
| 20260902115811 | 74 | 221 | 2.0 | 3.0 | 0.00 | 0.00 | 0.00 | 92 | 1015.2 |
| 20260902115311 | 74 | 205 | 3.0 | 5.0 | 0.00 | 0.00 | 0.00 | 92 | 1015.2 |
| 20260902114811 | 73 | 211 | 2.0 | 5.0 | 0.00 | 0.00 | 0.00 | 92 | 1015.2 |
| 20260902114311 | 73 | 236 | 2.0 | 4.0 | 0.00 | 0.00 | 0.00 | 92 | 1015.1 |
| 20260902113830 | 73 | 213 | 2.0 | 4.0 | 0.00 | 0.00 | 0.00 | 92 | 1015.1 |
| 20260902113331 | 73 | 223 | 0.0 | 3.0 | 0.00 | 0.00 | 0.00 | 92 | 1015.1 |
| 20260902112810 | 73 | 221 | 1.0 | 2.0 | 0.00 | 0.00 | 0.00 | 92 | 1015.1 |
| 20260902112311 | 73 | 214 | 1.0 | 2.0 | 0.00 | 0.00 | 0.00 | 92 | 1014.9 |
| 20260902111811 | 73 | 199 | 0.0 | 1.0 | 0.00 | 0.00 | 0.00 | 92 | 1015.0 |
| 20260902111311 | 73 | 0.0 | 0.0 | 0.00 | 0.00 | 0.00 | 92 | 1015.0 | |
| 20260902110811 | 73 | 0.0 | 0.0 | 0.00 | 0.00 | 0.00 | 92 | 1015.0 | |
| 20260902110310 | 73 | 205 | 0.0 | 3.0 | 0.00 | 0.00 | 0.00 | 92 | 1015.0 |
| 20260902105811 | 73 | 194 | 0.0 | 2.0 | 0.00 | 0.00 | 0.00 | 92 | 1015.1 |
| 20260902105311 | 73 | 192 | 1.0 | 4.0 | 0.00 | 0.00 | 0.00 | 92 | 1015.0 |
| 20260902104811 | 74 | 192 | 1.0 | 3.0 | 0.00 | 0.00 | 0.00 | 92 | 1015.1 |
| 20260902104311 | 74 | 0.0 | 2.0 | 0.00 | 0.00 | 0.00 | 92 | 1015.0 | |
| 20260902103810 | 74 | 194 | 1.0 | 3.0 | 0.00 | 0.00 | 0.00 | 92 | 1015.0 |
| 20260902103330 | 74 | 187 | 1.0 | 2.0 | 0.00 | 0.00 | 0.00 | 92 | 1014.9 |
| 20260902102811 | 74 | 185 | 1.0 | 2.0 | 0.00 | 0.00 | 0.00 | 92 | 1014.9 |
| 20260902102310 | 74 | 188 | 1.0 | 2.0 | 0.00 | 0.00 | 0.00 | 92 | 1014.9 |
| 20260902101831 | 74 | 180 | 2.0 | 3.0 | 0.00 | 0.00 | 0.00 | 92 | 1014.9 |
| 20260902101311 | 74 | 193 | 2.0 | 3.0 | 0.00 | 0.00 | 0.00 | 92 | 1014.9 |
| 20260902100810 | 74 | 178 | 0.0 | 1.0 | 0.00 | 0.00 | 0.00 | 92 | 1015.0 |
| 20260902100310 | 74 | 188 | 1.0 | 2.0 | 0.00 | 0.00 | 0.00 | 92 | 1014.9 |
| 20260902095810 | 74 | 188 | 1.0 | 3.0 | 0.00 | 0.00 | 0.00 | 92 | 1014.9 |
| 20260902095310 | 74 | 167 | 1.0 | 3.0 | 0.00 | 0.00 | 0.00 | 91 | 1015.0 |
| 20260902094810 | 74 | 159 | 0.0 | 2.0 | 0.00 | 0.00 | 0.00 | 92 | 1014.9 |
| 20260902094330 | 74 | 161 | 0.0 | 1.0 | 0.00 | 0.00 | 0.00 | 91 | 1014.9 |
| 20260902093810 | 74 | 177 | 1.0 | 3.0 | 0.00 | 0.00 | 0.00 | 91 | 1014.9 |
| 20260902093310 | 74 | 0.0 | 0.0 | 0.00 | 0.00 | 0.00 | 92 | 1014.8 | |
| 20260902092810 | 74 | 159 | 1.0 | 4.0 | 0.00 | 0.00 | 0.00 | 92 | 1014.7 |
| 20260902092310 | 74 | 175 | 1.0 | 3.0 | 0.00 | 0.00 | 0.00 | 92 | 1014.7 |
| 20260902091830 | 74 | 180 | 0.0 | 1.0 | 0.00 | 0.00 | 0.00 | 92 | 1014.7 |
| 20260902091311 | 74 | 180 | 0.0 | 2.0 | 0.00 | 0.00 | 0.00 | 92 | 1014.8 |
| 20260902090810 | 74 | 167 | 1.0 | 1.0 | 0.00 | 0.00 | 0.00 | 92 | 1014.8 |
| 20260902090310 | 74 | 0.0 | 0.0 | 0.00 | 0.00 | 0.00 | 92 | 1014.7 | |
| 20260902085810 | 74 | 166 | 0.0 | 1.0 | 0.00 | 0.00 | 0.00 | 92 | 1014.6 |
| 20260902085310 | 74 | 175 | 1.0 | 2.0 | 0.00 | 0.00 | 0.00 | 92 | 1014.7 |
| 20260902084810 | 74 | 175 | 1.0 | 2.0 | 0.00 | 0.00 | 0.00 | 92 | 1014.7 |
| 20260902084310 | 74 | 175 | 0.0 | 1.0 | 0.00 | 0.00 | 0.00 | 92 | 1014.7 |
| 20260902083831 | 74 | 175 | 0.0 | 1.0 | 0.00 | 0.00 | 0.00 | 92 | 1014.7 |
| 20260902083310 | 74 | 175 | 1.0 | 2.0 | 0.00 | 0.00 | 0.00 | 92 | 1014.7 |
| 20260902082811 | 74 | 0.0 | 0.0 | 0.00 | 0.00 | 0.00 | 91 | 1014.7 | |
| 20260902082310 | 74 | 169 | 0.0 | 1.0 | 0.00 | 0.00 | 0.00 | 92 | 1014.7 |
| 20260902081810 | 74 | 171 | 0.0 | 1.0 | 0.00 | 0.00 | 0.00 | 91 | 1014.6 |
| 20260902081310 | 74 | 0.0 | 0.0 | 0.00 | 0.00 | 0.00 | 91 | 1014.6 | |
| 20260902080810 | 74 | 171 | 1.0 | 2.0 | 0.00 | 0.00 | 0.00 | 91 | 1014.5 |
| 20260902080310 | 74 | 0.0 | 0.0 | 0.00 | 0.00 | 0.00 | 91 | 1014.5 | |
| 20260902075810 | 74 | 0.0 | 0.0 | 0.00 | 0.00 | 0.00 | 91 | 1014.6 | |
| 20260902075310 | 74 | 0.0 | 0.0 | 0.00 | 0.00 | 0.00 | 91 | 1014.4 | |
| 20260902074810 | 74 | 0.0 | 0.0 | 0.00 | 0.00 | 0.00 | 91 | 1014.4 | |
| 20260902074310 | 74 | 0.0 | 1.0 | 0.00 | 0.00 | 0.00 | 91 | 1014.3 | |
| 20260902073810 | 74 | 0.0 | 1.0 | 0.00 | 0.00 | 0.00 | 91 | 1014.4 | |
| 20260902073312 | 74 | 0.0 | 0.0 | 0.00 | 0.00 | 0.00 | 91 | 1014.4 | |
| 20260902072812 | 74 | 0.0 | 0.0 | 0.00 | 0.00 | 0.00 | 91 | 1014.4 | |
| 20260902072312 | 74 | 0.0 | 1.0 | 0.00 | 0.00 | 0.00 | 91 | 1014.4 | |
| 20260902071812 | 75 | 171 | 0.0 | 1.0 | 0.00 | 0.00 | 0.00 | 91 | 1014.3 |
| 20260902071312 | 75 | 0.0 | 1.0 | 0.00 | 0.00 | 0.00 | 91 | 1014.2 | |
| 20260902070812 | 75 | 159 | 0.0 | 1.0 | 0.00 | 0.00 | 0.00 | 91 | 1014.2 |
| 20260902070332 | 75 | 0.0 | 0.0 | 0.00 | 0.00 | 0.00 | 91 | 1014.2 | |
| 20260902065812 | 75 | 0.0 | 0.0 | 0.00 | 0.00 | 0.00 | 91 | 1014.2 | |
| 20260902065312 | 75 | 0.0 | 0.0 | 0.00 | 0.00 | 0.00 | 91 | 1014.2 | |
| 20260902064812 | 75 | 0.0 | 0.0 | 0.00 | 0.00 | 0.00 | 91 | 1014.2 | |
| 20260902064312 | 75 | 0.0 | 0.0 | 0.00 | 0.00 | 0.00 | 91 | 1014.2 | |
| 20260902063812 | 75 | 0.0 | 0.0 | 0.00 | 0.00 | 0.00 | 91 | 1014.2 | |
| 20260902063312 | 75 | 0.0 | 0.0 | 0.00 | 0.00 | 0.00 | 91 | 1014.2 | |
| 20260902062812 | 75 | 0.0 | 0.0 | 0.00 | 0.00 | 0.00 | 91 | 1014.2 | |
| 20260902062312 | 75 | 0.0 | 0.0 | 0.00 | 0.00 | 0.00 | 91 | 1014.3 | |
| 20260902061812 | 75 | 0.0 | 0.0 | 0.00 | 0.00 | 0.00 | 91 | 1014.3 | |
| 20260902061312 | 74 | 124 | 0.0 | 2.0 | 0.00 | 0.00 | 0.00 | 91 | 1014.4 |
| 20260902060812 | 74 | 0.0 | 0.0 | 0.00 | 0.00 | 0.00 | 91 | 1014.4 | |
| 20260902060332 | 74 | 0.0 | 0.0 | 0.00 | 0.00 | 0.00 | 91 | 1014.6 | |
| 20260902055812 | 74 | 0.0 | 0.0 | 0.00 | 0.00 | 0.00 | 91 | 1014.7 | |
| 20260902055312 | 74 | 0.0 | 0.0 | 0.00 | 0.00 | 0.00 | 91 | 1014.7 | |
| 20260902054812 | 75 | 0.0 | 0.0 | 0.00 | 0.00 | 0.00 | 91 | 1014.7 | |
| 20260902054312 | 75 | 0.0 | 0.0 | 0.00 | 0.00 | 0.00 | 91 | 1014.7 | |
| 20260902053812 | 75 | 0.0 | 0.0 | 0.00 | 0.00 | 0.00 | 91 | 1014.7 | |
| 20260902053312 | 75 | 0.0 | 0.0 | 0.00 | 0.00 | 0.00 | 91 | 1014.6 | |
| 20260902052832 | 75 | 0.0 | 0.0 | 0.00 | 0.00 | 0.00 | 91 | 1014.7 | |
| 20260902052312 | 74 | 0.0 | 0.0 | 0.00 | 0.00 | 0.00 | 91 | 1014.7 | |
| 20260902051812 | 74 | 0.0 | 0.0 | 0.00 | 0.00 | 0.00 | 91 | 1014.8 | |
| 20260902051312 | 74 | 0.0 | 0.0 | 0.00 | 0.00 | 0.00 | 91 | 1014.8 | |
| 20260902050812 | 74 | 0.0 | 0.0 | 0.00 | 0.00 | 0.00 | 90 | 1014.8 | |
| 20260902050332 | 74 | 0.0 | 0.0 | 0.00 | 0.00 | 0.00 | 90 | 1014.8 | |
| 20260902045812 | 74 | 0.0 | 0.0 | 0.00 | 0.00 | 0.00 | 90 | 1014.7 | |
| 20260902045312 | 74 | 0.0 | 0.0 | 0.00 | 0.00 | 0.00 | 90 | 1014.7 | |
| 20260902044812 | 74 | 0.0 | 0.0 | 0.00 | 0.00 | 0.00 | 90 | 1014.7 | |
| 20260902044312 | 74 | 0.0 | 0.0 | 0.00 | 0.00 | 0.00 | 90 | 1014.7 | |
| 20260902043812 | 75 | 0.0 | 0.0 | 0.00 | 0.00 | 0.00 | 90 | 1014.7 | |
| 20260902043312 | 75 | 0.0 | 0.0 | 0.00 | 0.00 | 0.00 | 90 | 1014.7 |